Overview Statistics Trail Chart Weather Telemetry Raw packets
 

This is the latest recevied weather packets stored in our database for station/object W0CHP-13. If no packets are shown the sender has not sent any weather packets the latest 10 day(s).

<< 29 30 31 32 33 34 35 >>
Time Temp. Humidity Pressure Rain* Wind** Luminosity Snow
1788261017 22.22° C 93% 1012.3 hPa 13.46 mm - 0 W/m² -
1788260416 22.22° C 93% 1012.3 hPa 16 mm - 0 W/m² -
1788259818 22.78° C 94% 1012.3 hPa 14.73 mm - 0 W/m² -
1788259216 22.78° C 94% 1012.3 hPa 14.22 mm - 0 W/m² -
1788258639 22.78° C 95% 1012.3 hPa 11.68 mm - 0 W/m² -
1788258018 22.78° C 95% 1012.3 hPa 10.92 mm - 0 W/m² -
1788257417 23.33° C 96% 1012.3 hPa 2.79 mm - 0 W/m² -
1788256819 23.33° C 95% 1011.7 hPa 0 mm - 0 W/m² -
1788256217 23.33° C 95% 1012 hPa 0 mm - 0 W/m² -
1788255615 23.33° C 95% 1011.6 hPa 0 mm - 0 W/m² -
1788255017 23.33° C 96% 1012 hPa 0 mm - 0 W/m² -
1788254416 23.33° C 95% 1012 hPa 0 mm - 0 W/m² -
1788253818 23.33° C 95% 1012 hPa 0 mm - 0 W/m² -
1788253217 23.33° C 95% 1012 hPa 0 mm - 0 W/m² -
1788252640 23.33° C 95% 1012 hPa 0 mm - 0 W/m² -
1788252017 23.33° C 94% 1011.6 hPa 0 mm - 0 W/m² -
1788251418 23.33° C 94% 1011.6 hPa 0 mm - 0 W/m² -
1788250816 23.33° C 95% 1011.6 hPa 0 mm - 0 W/m² -
1788250215 23.33° C 94% 1012 hPa 0 mm - 0 W/m² -
1788249617 23.89° C 94% 1011.6 hPa 0 mm - 0 W/m² -
1788249016 23.89° C 94% 1012 hPa 0 mm - 0 W/m² -
1788248418 23.89° C 94% 1012 hPa 0 mm - 0 W/m² -
1788247816 24.44° C 94% 1011.9 hPa 0 mm - 0 W/m² -
1788247218 24.44° C 92% 1012 hPa 0 mm - 0 W/m² -
1788246615 24.44° C 94% 1011.7 hPa 0 mm - 0 W/m² -

* Rain latest hour (hover to see other rain measurements)
** Current wind speed in m/s (hover to see current wind gust speed)